[[{"header":{"parameterUnit":"m.s-1","parameterCategory":1,"la1":30.2991,"la2":30.254,"lo1":-89.0895,"lo2":-89.0444,"dy":0.0017,"dx":0.0017,"nx":28,"ny":28,"refTime":"2025-04-09T21:00:00:Z","depth":0,"parameterNumber":2,"parameterNumberName":"U-component_of_WINDS"},"data":[0,0,0,0,0,0,0,0,0,0,0,0,0,0,0,0,0,0,0,0,0,0,0,0,0,0,0,0,0,0,0,0,0,0,0,0,0,0,0,0,0,0,0,0,0,0,0,0,0,0,0,0,0,0,0,0,0,0,1.9293,1.9295,0,1.9483,1.9485,1.9488,1.9548,1.9547,1.9546,1.9545,1.9743,1.9749,1.9755,0,0,0,0,0,0,0,0,0,0,0,0,0,1.8984,1.899,1.9293,1.9295,1.9297,1.9483,1.9485,1.9488,1.9548,1.9547,1.9546,1.9545,1.9741,1.9748,1.9755,0,0,0,0,0,0,0,0,0,0,0,0,0,1.9141,1.8991,1.9292,1.935,1.9357,1.9482,1.9486,1.9489,1.9548,1.9547,1.9546,1.9544,1.9739,1.9747,1.9756,1.984,0,0,1.9784,1.9788,0,0,0,0,0,0,0,0,1.9132,1.9152,1.9339,1.9346,1.9354,1.949,1.9449,1.9606,1.9549,1.9476,1.9545,1.9544,1.966,1.9676,1.9714,1.9849,1.9857,1.9785,1.9791,1.9795,1.9797,0,0,0,0,0,0,0,1.9121,1.9144,1.9368,1.9342,1.9351,1.9367,1.9388,1.9479,1.9573,1.9482,1.9487,1.9508,1.9664,1.9705,1.9719,1.986,1.9785,1.9793,1.9799,1.9802,2.0073,2.0075,0,0,0,0,0,0,1.91,1.9135,1.9362,1.9374,1.9237,1.9374,1.9397,1.9448,1.9572,1.959,1.9509,1.951,1.969,1.9709,1.9727,1.9832,1.9795,1.9803,1.9808,2.0071,2.0074,2.0075,0,0,0,0,0,0,1.9093,1.912,1.9354,1.9256,1.9287,1.938,1.9437,1.9452,1.9494,1.9593,1.961,1.9534,1.969,1.9714,1.9811,1.984,1.9807,1.9816,2.0069,2.0072,2.0075,2.0043,0,0,0,0,0,0,1.9084,1.9117,1.9148,1.9256,1.9292,1.9434,1.9439,1.9457,1.9509,1.9512,1.9621,1.9637,1.9691,1.9797,1.982,1.9852,1.9823,2.0067,2.0071,2.0074,2.0042,2.0044,2.0046,0,0,0,0,0,1.9073,1.9132,1.915,1.9177,1.9333,1.9436,1.9456,1.9516,1.9511,1.9544,1.9608,1.9634,1.9833,1.9806,1.9833,1.9868,2.0066,2.007,2.0073,2.0041,2.0044,2.0046,0,0,0,0,0,0,1.9026,1.9147,1.9168,1.9264,1.9339,1.9446,1.9489,1.9517,1.9596,1.9595,1.9667,1.9691,1.9783,1.9836,1.9804,1.9955,1.9951,1.996,1.9917,1.992,1.9922,1.9907,1.983,0,0,0,0,0,1.9027,1.9099,1.9202,1.9277,1.9313,1.9395,1.9442,1.9481,1.9562,1.9594,1.9665,1.9744,1.9824,1.9876,1.9955,2.005,2.0075,2.0088,2.009,2.0091,2.0098,2.0152,2.0159,2.0088,2.0088,2.0088,0,0,1.9029,1.9105,1.9146,1.9269,1.9332,1.9406,1.9421,1.9499,1.9554,1.9607,1.9702,1.9757,1.985,1.9946,1.9992,1.9993,2.0123,2.0096,2.0096,2.0102,2.0157,2.0163,2.0169,2.0091,2.009,2.009,0,0,1.9071,1.9136,1.9205,1.9268,1.9363,1.9417,1.9433,1.9536,1.9575,1.9672,1.9712,1.9781,1.9918,1.9982,2.0032,2.01,2.0127,2.0125,2.0135,2.0187,2.0193,2.0198,2.0222,2.0229,2.0131,2.0131,2.0131,0,1.9062,1.9174,1.9237,1.9313,1.9366,1.9417,1.9488,1.9546,1.9662,1.9698,1.9697,1.987,1.9936,2.0048,2.0065,2.0105,2.0126,2.0111,2.0187,2.0193,2.0199,2.0222,2.0231,2.013,2.013,2.013,2.013,0,1.9159,1.9236,1.9281,1.9391,1.945,1.9523,1.9597,1.965,1.9685,1.9739,1.9838,1.9919,2.0016,2.0046,2.0081,2.0164,2.0161,2.0173,2.0169,2.0203,2.0226,2.0236,2.0129,2.0129,2.0129,2.013,0,0,1.9174,1.9319,1.9334,1.9385,1.9494,1.9556,1.9632,1.9726,1.9769,1.9849,1.9914,2.003,2.0041,2.0099,2.0142,2.0188,2.0236,2.0195,2.0198,2.0199,2.0332,2.0321,2.033,2.0256,2.0258,2.0259,2.0324,0,1.9229,1.9366,1.9425,1.9535,1.9608,1.9658,1.9724,1.9799,1.9852,1.9923,1.9983,2.0062,2.0072,2.0107,2.0155,2.022,2.0264,2.0217,2.0317,2.032,2.0291,2.0343,2.0332,2.0389,2.0333,2.0335,2.0336,0,1.9311,1.9389,1.9506,1.9607,1.964,1.9698,1.979,1.9856,1.9943,1.9979,2.0043,2.0085,2.0167,2.016,2.0275,2.0242,2.0287,2.0326,2.0329,2.034,2.0329,2.0353,2.0409,2.0416,2.0351,2.035,2.0349,0,1.9309,1.9445,1.9532,1.9574,1.9695,1.9735,1.9787,1.9872,1.9925,2.0006,2.0041,2.013,2.0179,2.0248,2.0313,2.0301,2.0422,2.042,2.0454,2.0452,2.0476,2.0473,2.0537,2.0507,2.0507,2.0507,2.0507,0,1.9363,1.9432,1.9533,1.9586,1.9666,1.9735,1.9812,1.9868,1.9944,2.001,2.006,2.0121,2.0204,2.0276,2.0327,2.0415,2.0437,2.0469,2.0481,2.0463,2.0459,2.0493,2.049,2.0509,2.0509,2.0508,2.0508,0,1.9374,1.9444,1.9542,1.9649,1.9677,1.9731,1.9823,1.9877,1.9934,2.0017,2.004,2.0129,2.0217,2.0289,2.0404,2.0439,2.053,2.0545,2.05,2.0506,2.0536,2.0532,2.0623,2.0638,2.0598,2.0599,2.0599,0,1.9403,1.9457,1.9569,1.9617,1.9668,1.9744,1.9799,1.9869,1.9924,2.0027,2.007,2.0161,2.0237,2.0375,2.045,2.0539,2.0556,2.0582,2.0569,2.055,2.0555,2.055,2.0556,2.0582,2.0582,2.0582,2.0582,0,1.9446,1.9479,1.9555,1.9643,1.9707,1.978,1.9855,1.9891,1.9976,2.0035,2.0125,2.0184,2.0301,2.0391,2.0488,2.0543,2.0577,2.0586,2.0598,2.058,2.0551,2.0566,2.0501,2.0583,2.0583,2.0583,2.0583,2.0583,1.9467,1.9517,1.9604,1.9688,1.9751,1.982,1.9877,1.994,2.0016,2.0116,2.0154,2.0246,2.0333,2.0466,2.0522,2.0596,2.0599,2.0617,2.0622,2.0625,2.0622,2.054,2.0614,2.0614,2.0614,2.0614,2.0614,0,1.9512,1.9571,1.9647,1.975,1.9815,1.9842,1.9926,1.998,2.006,2.0137,2.0212,2.0315,2.0403,2.0485,2.0578,2.0621,2.0639,2.0642,2.0639,2.0651,2.0614,2.0593,2.0626,2.0626,2.0626,2.0626,2.0626,2.0626,1.9543,1.9631,1.9673,1.9793,1.9852,1.9942,1.9988,2.0052,2.0114,2.0227,2.03,2.0354,2.0434,2.0532,2.0614,2.0637,2.0668,2.0667,2.0693,2.0656,2.0654,2.0652,2.0633,2.0674,2.0674,2.0725,2.0725,2.0726]},{"header":{"parameterUnit":"m.s-1","parameterCategory":1,"la1":30.2991,"la2":30.254,"lo1":-89.0895,"lo2":-89.0444,"dy":0.0017,"dx":0.0017,"nx":28,"ny":28,"refTime":"2025-04-09T21:00:00:Z","depth":0,"parameterNumber":3,"parameterNumberName":"V-component_of_WINDS"},"data":[0,0,0,0,0,0,0,0,0,0,0,0,0,0,0,0,0,0,0,0,0,0,0,0,0,0,0,0,0,0,0,0,0,0,0,0,0,0,0,0,0,0,0,0,0,0,0,0,0,0,0,0,0,0,0,0,0,0,4.4518,4.452,0,4.4679,4.4681,4.4683,4.4697,4.4695,4.4694,4.4692,4.4846,4.4851,4.4857,0,0,0,0,0,0,0,0,0,0,0,0,0,4.4211,4.4217,4.4518,4.452,4.4522,4.4679,4.4681,4.4683,4.4697,4.4695,4.4693,4.4691,4.4844,4.4851,4.4857,0,0,0,0,0,0,0,0,0,0,0,0,0,4.4355,4.4218,4.4518,4.4548,4.4553,4.4679,4.4681,4.4684,4.4698,4.4695,4.4693,4.469,4.4842,4.485,4.4858,4.4961,0,0,4.4884,4.4888,0,0,0,0,0,0,0,0,4.4347,4.4366,4.4542,4.4546,4.4552,4.4666,4.4629,4.4777,4.4698,4.4642,4.4692,4.4689,4.4787,4.48,4.4835,4.4969,4.4975,4.4885,4.489,4.4894,4.4896,0,0,0,0,0,0,0,4.4337,4.4359,4.4581,4.4544,4.455,4.455,4.4568,4.4657,4.4726,4.4647,4.4649,4.4668,4.4789,4.4827,4.4839,4.4977,4.4885,4.4892,4.4898,4.4901,4.5202,4.5205,0,0,0,0,0,0,4.4323,4.4351,4.4576,4.4586,4.4441,4.4558,4.4578,4.4631,4.4726,4.4738,4.467,4.4668,4.4814,4.4829,4.4845,4.4971,4.4894,4.4902,4.4907,4.5199,4.5202,4.5206,0,0,0,0,0,0,4.4316,4.4343,4.457,4.4469,4.4498,4.4566,4.4626,4.4636,4.4674,4.4743,4.4754,4.4697,4.4813,4.4833,4.4933,4.4977,4.4906,4.4913,4.5196,4.52,4.5204,4.5225,0,0,0,0,0,0,4.4307,4.434,4.4383,4.447,4.4504,4.4659,4.4629,4.4641,4.469,4.4689,4.4771,4.4782,4.4812,4.492,4.4941,4.4987,4.492,4.5192,4.5198,4.5203,4.5221,4.523,4.5237,0,0,0,0,0,4.4296,4.438,4.4385,4.4412,4.4559,4.4661,4.468,4.4716,4.4694,4.4735,4.4779,4.478,4.4969,4.493,4.4954,4.5003,4.5189,4.5196,4.5202,4.5217,4.5228,4.5237,0,0,0,0,0,0,4.4291,4.4392,4.4399,4.4514,4.458,4.4664,4.4717,4.4726,4.4796,4.4792,4.483,4.4848,4.4947,4.4985,4.494,4.5107,4.5076,4.5088,4.5079,4.509,4.5098,4.5086,4.4927,0,0,0,0,0,4.4305,4.4384,4.4465,4.4559,4.4592,4.4649,4.4695,4.4717,4.4785,4.4812,4.4863,4.4926,4.4999,4.5047,4.5118,4.5226,4.5243,4.5272,4.528,4.5286,4.5295,4.5355,4.5368,4.5227,4.5227,4.5227,0,0,4.4331,4.4396,4.4442,4.4559,4.4613,4.469,4.4672,4.4754,4.4811,4.4823,4.4922,4.4962,4.5034,4.5139,4.5187,4.5173,4.5338,4.5295,4.5299,4.5305,4.5363,4.5376,4.5388,4.5231,4.5231,4.523,0,0,4.4419,4.4477,4.4561,4.4616,4.4699,4.4736,4.4756,4.484,4.4868,4.4969,4.4979,4.5045,4.5171,4.5222,4.5265,4.5372,4.5375,4.5394,4.5437,4.5494,4.5505,4.5515,4.5552,4.5566,4.5403,4.5403,4.5403,0,4.444,4.4561,4.4602,4.4686,4.4736,4.4754,4.4838,4.4888,4.4987,4.502,4.5004,4.5163,4.5213,4.5329,4.5356,4.539,4.5412,4.5385,4.5501,4.5511,4.5521,4.5557,4.5571,4.5405,4.5405,4.5405,4.5404,0,4.4583,4.4666,4.4724,4.4825,4.4881,4.4964,4.5014,4.5066,4.5083,4.5121,4.5222,4.5283,4.5367,4.5396,4.5412,4.5515,4.5503,4.5494,4.5463,4.5536,4.557,4.5584,4.5408,4.5407,4.5406,4.5406,0,0,4.4671,4.4796,4.4816,4.4862,4.4955,4.5018,4.51,4.5187,4.523,4.5297,4.5366,4.5472,4.5465,4.5512,4.5534,4.5584,4.5665,4.5568,4.557,4.5583,4.578,4.5787,4.5803,4.5667,4.567,4.5672,4.5774,0,4.4769,4.4922,4.4961,4.5089,4.5165,4.5184,4.5255,4.5318,4.5355,4.5423,4.5462,4.5538,4.5522,4.5551,4.5602,4.5644,4.5705,4.5637,4.5728,4.5731,4.571,4.5821,4.5828,4.5922,4.5788,4.579,4.5792,0,4.4904,4.498,4.5116,4.52,4.5233,4.5298,4.538,4.5445,4.5515,4.5539,4.5593,4.561,4.5693,4.5659,4.5772,4.5726,4.5765,4.5791,4.5796,4.5805,4.5766,4.5832,4.5952,4.5966,4.5814,4.5812,4.581,0,4.4954,4.5089,4.5189,4.5228,4.5328,4.5373,4.5415,4.5484,4.5533,4.5603,4.5635,4.5712,4.5754,4.5812,4.5848,4.582,4.5958,4.5927,4.5977,4.5976,4.6005,4.6003,4.6132,4.6031,4.6031,4.6031,4.603,0,4.5059,4.5142,4.5214,4.5275,4.5367,4.541,4.5499,4.5541,4.5602,4.5669,4.5688,4.5749,4.5794,4.586,4.5889,4.5978,4.5996,4.6015,4.6022,4.6014,4.6011,4.6039,4.6033,4.6034,4.6033,4.6033,4.6032,0,4.5131,4.5182,4.5292,4.5379,4.5403,4.5467,4.5539,4.5597,4.5636,4.572,4.5742,4.5802,4.5881,4.5924,4.6021,4.604,4.614,4.6143,4.6118,4.612,4.6169,4.6163,4.6321,4.6343,4.6227,4.6228,4.6229,0,4.5194,4.5259,4.5354,4.5403,4.5448,4.5525,4.5576,4.562,4.5672,4.5757,4.5804,4.5886,4.5954,4.6079,4.6129,4.6203,4.6208,4.6258,4.6219,4.6209,4.6208,4.6203,4.6209,4.6264,4.6265,4.6266,4.6267,0,4.5301,4.5324,4.54,4.5485,4.5547,4.5615,4.5681,4.5719,4.5772,4.5829,4.5914,4.5966,4.6069,4.6148,4.6227,4.6267,4.6275,4.6279,4.6294,4.6287,4.6269,4.6279,4.6136,4.6275,4.6274,4.6273,4.6273,4.6273,4.537,4.5429,4.5506,4.5589,4.5645,4.5707,4.5766,4.5814,4.5886,4.5976,4.5996,4.6084,4.6151,4.6259,4.6301,4.6368,4.6358,4.638,4.6386,4.6391,4.6393,4.626,4.6382,4.6382,4.6382,4.6382,4.6382,0,4.5477,4.5528,4.5605,4.57,4.5765,4.5772,4.5846,4.5899,4.5978,4.6042,4.6109,4.6205,4.6283,4.6339,4.6417,4.646,4.6465,4.6479,4.6475,4.6484,4.6398,4.6377,4.6473,4.6473,4.6473,4.6473,4.6473,4.6473,4.5541,4.5641,4.5673,4.5799,4.5848,4.5938,4.598,4.6036,4.6088,4.6196,4.6262,4.63,4.636,4.6443,4.6513,4.6528,4.6555,4.6568,4.6582,4.65,4.649,4.6481,4.6461,4.6574,4.6574,4.6663,4.6664,4.6664]}]]